Tracking 29892 objects as of 21-Nov-2024
HD Live streaming from Space Station
objects crossing your sky now

CZ-6A DEB

Track CZ-6A DEB now!
10-day predictions


NORAD ID: 54309
Int'l Code: 2022-151BC
Perigee: 833.1 km
Apogee: 887.5 km
Inclination: 98.8 °
Period: 102.0 minutes
Semi major axis: 7231 km
RCS: Unknown
Launch date: November 11, 2022
Source: People's Republic of China (PRC)
Launch site: Taiyaun Space Center, China (TSC)

Note: This is SATELLITE DEBRIS
Your satellite tracking list
Your tracking list is empty




NASA's NSSDC Master Catalog

Two Line Element Set (TLE):
1 54309U 22151BC  24325.95412097  .00000827  00000-0  47377-3 0  9993
2 54309  98.8228 327.6867 0037616 143.5574 216.8169 14.11827354103789
Source of the keplerian elements: AFSPC